Renton, WA
on Tuesday, February 26, 2013

Tuesday
Previous Day Next Day
Daily Summary
 ActualAverage (KSEA)Record (KSEA)
Temperature
Mean Temperature °F 44°F  
Max Temperature 48°F 51°F 67°F (1992)
Min Temperature 41°F 37°F 18°F (1962)
Degree Days
Heating Degree Days 20 21  
Month to date heating degree days 564  
Since 1 July heating degree days 3213  
Cooling Degree Days 0 0  
Month to date cooling degree days 0  
Year to date cooling degree days 0  
Moisture
Dew Point 32°F   
Average Humidity 64    
Maximum Humidity 80    
Minimum Humidity 46    
Precipitation
Precipitation 0.00 in 0.12 in 1.19 in (1965)
Month to date precipitation 3.25  
Year to date precipitation 8.82  
Snow
Snow 0.00 in in 2.10 in (2009)
Month to date snowfall  
Since 1 July snowfall  
Snow Depth in   
Wind
Wind Speed 6 mph   
Max Wind Speed 10 mph   
Max Gust Speed mph   
Visibility 10 miles   
Events     

Key: T is trace of precipitation, MM is missing value
Source: NWS Daily Summary
Time(PST)TemperatureDew PointHumidity Pressure Visibility Wind DirectionWind SpeedGust SpeedPrecipitationEvents Conditions
12:53 AM 42.1°F 34.0°F 73% 30.34 in 10.0 miles SSE 6.9 mph - N/A   Overcast
1:53 AM 41.0°F 34.0°F 76% 30.35 in 10.0 miles SSE 6.9 mph - N/A   Overcast
2:53 AM 41.0°F 34.0°F 76% 30.35 in 10.0 miles SSE 6.9 mph - N/A   Overcast
3:53 AM 41.0°F 34.0°F 76% 30.35 in 10.0 miles SSE 5.8 mph - N/A   Overcast
4:53 AM 41.0°F 34.0°F 76% 30.36 in 10.0 miles South 4.6 mph - N/A   Overcast
5:12 AM 41.0°F 33.8°F 76% 30.34 in 10.0 miles SSE 3.5 mph - N/A   Overcast
5:29 AM 41.0°F 33.8°F 76% 30.35 in 10.0 miles SSE 3.5 mph - N/A   Overcast
5:53 AM 42.1°F 33.1°F 70% 30.36 in 10.0 miles SSE 4.6 mph - N/A   Overcast
6:12 AM 41.0°F 33.8°F 76% 30.35 in 10.0 miles SSE 4.6 mph - N/A   Overcast
6:53 AM 41.0°F 33.1°F 73% 30.37 in 10.0 miles SSE 5.8 mph - N/A   Overcast
7:53 AM 42.1°F 32.0°F 67% 30.37 in 10.0 miles SSE 5.8 mph - N/A   Mostly Cloudy
8:53 AM 43.0°F 30.9°F 62% 30.38 in 10.0 miles South 6.9 mph - N/A   Overcast
9:53 AM 45.0°F 30.9°F 58% 30.36 in 10.0 miles South 6.9 mph - N/A   Overcast
10:53 AM 46.0°F 30.9°F 56% 30.34 in 10.0 miles SSE 8.1 mph - N/A   Overcast
11:53 AM 46.9°F 28.9°F 50% 30.32 in 10.0 miles South 10.4 mph - N/A   Overcast
12:53 PM 48.0°F 28.0°F 46% 30.30 in 10.0 miles SSE 9.2 mph - N/A   Partly Cloudy
1:53 PM 48.0°F 28.9°F 48% 30.28 in 10.0 miles SE 6.9 mph - N/A   Overcast
2:53 PM 48.0°F 28.9°F 48% 30.27 in 10.0 miles SSE 8.1 mph - N/A   Mostly Cloudy
3:53 PM 48.2°F 28.4°F 46% 30.25 in 10.0 miles SSE 6.9 mph - N/A   Overcast
4:53 PM 46.9°F 32.0°F 56% 30.25 in 10.0 miles SSE 5.8 mph - N/A   Overcast
5:53 PM 46.9°F 30.9°F 54% 30.24 in 10.0 miles SE 4.6 mph - N/A   Overcast
6:53 PM 46.9°F 32.0°F 56% 30.24 in 10.0 miles Calm Calm - N/A   Overcast
7:53 PM 46.0°F 33.1°F 61% 30.23 in 10.0 miles SSE 10.4 mph - 0.00 in   Overcast
8:53 PM 45.0°F 34.0°F 65% 30.23 in 10.0 miles SE 3.5 mph - N/A   Overcast
9:53 PM 45.0°F 35.1°F 68% 30.23 in 10.0 miles ESE 3.5 mph - N/A   Overcast
10:53 PM 45.0°F 34.0°F 65% 30.22 in 10.0 miles Variable 3.5 mph - N/A   Overcast
11:53 PM 43.0°F 37.0°F 80% 30.22 in 10.0 miles SSE 5.8 mph - 0.00 in   Overcast
Moon Phase
Feb. 26 Mar. 04 Mar. 11 Mar. 19 Mar. 27
Sunrise:06:54 AM (PST) Moon Rise:07:22 PM (PST)
Sunset:05:49 PM (PST) Moon Set:06:52 AM (PST)

Copyright © 2014 The Weather Underground, Inc.